Date,TemperatureHighF,TemperatureAvgF,TemperatureLowF,DewpointHighF,DewpointAvgF,DewpointLowF,HumidityHigh,HumidityAvg,HumidityLow,PressureMaxIn,PressureMinIn,WindSpeedMaxMPH,WindSpeedAvgMPH,GustSpeedMaxMPH,PrecipitationSumIn
2013-10-1,85.2,80.1,75.4,80.6,76.5,73.7,100,89,79,28.68,28.60,17,4,21,0.53
2013-10-2,86.5,82.0,78.3,77.8,75.9,73.4,90,82,73,28.72,28.64,20,5,21,0.00
2013-10-3,86.0,81.5,77.5,76.4,74.6,72.2,91,80,67,28.71,28.64,18,4,18,0.00
2013-10-4,86.0,81.4,79.0,77.1,75.1,73.1,87,81,74,28.69,28.63,19,5,19,0.00
2013-10-5,86.3,81.0,75.8,78.0,75.7,73.2,94,84,74,28.70,28.62,17,2,17,0.00
2013-10-6,80.7,67.4,56.4,76.5,56.9,-99.9,100,72,38,28.81,28.48,10,1,15,0.26
2013-10-7,82.8,67.1,52.5,59.7,52.6,46.2,89,64,30,28.58,28.46,3,0,8,0.00
2013-10-8,80.3,68.9,55.0,63.3,59.2,53.0,93,73,46,28.49,28.40,4,0,9,0.00
2013-10-9,82.2,75.1,69.1,67.9,65.0,61.3,78,71,56,28.44,28.35,5,2,11,0.00
2013-10-10,84.6,79.3,74.5,72.9,70.1,65.7,81,74,58,28.40,28.29,7,4,16,0.00
2013-10-11,85.8,81.4,78.3,79.0,76.0,72.0,91,84,77,28.31,28.22,8,5,15,0.00
2013-10-12,87.3,82.4,79.7,79.8,78.2,77.3,94,87,75,28.37,28.25,8,4,16,0.00
2013-10-13,83.8,80.0,75.6,77.8,76.3,73.0,94,89,80,30.10,28.35,7,3,13,0.22
2013-10-14,84.2,80.6,77.7,76.0,73.9,71.0,92,80,68,30.06,29.94,8,4,16,0.06
2013-10-15,85.5,80.8,78.4,74.6,73.1,71.6,85,78,67,29.98,29.88,6,4,12,0.00
2013-10-16,80.1,73.8,63.9,75.9,68.4,60.0,92,83,73,30.02,29.88,4,0,7,0.00
2013-10-17,77.2,68.3,63.3,63.8,60.3,55.6,88,76,61,30.06,29.93,2,0,8,0.00
2013-10-18,78.1,73.2,66.7,74.7,70.1,61.6,96,90,82,29.96,29.79,4,1,11,0.37
2013-10-19,72.9,65.8,58.9,71.2,58.5,49.1,96,79,47,30.08,29.85,3,1,8,0.11
2013-10-20,76.1,65.5,54.7,66.9,60.0,52.1,94,83,71,30.02,29.87,3,0,6,0.00
2013-10-21,79.3,73.2,67.2,74.1,69.5,65.1,98,89,79,29.90,29.80,5,1,9,1.01
2013-10-22,78.9,67.8,58.7,68.4,60.2,49.8,98,79,46,30.03,29.90,1,0,5,0.00
2013-10-23,79.9,65.1,50.4,59.4,52.3,44.3,94,68,29,30.11,30.00,2,0,7,0.00
2013-10-24,79.8,67.4,55.5,65.8,60.4,53.8,95,80,52,30.14,30.03,4,0,12,0.00
2013-10-25,79.2,71.6,61.1,72.7,66.0,59.7,97,83,68,30.19,30.09,5,2,15,0.03
2013-10-26,81.6,76.4,72.7,70.6,68.6,65.6,87,77,64,30.10,29.97,9,4,16,0.00
2013-10-27,83.1,75.4,67.2,74.2,70.2,66.0,97,85,64,30.00,29.89,7,2,12,0.00
2013-10-28,82.2,77.2,73.3,73.6,71.7,70.7,93,84,70,29.98,29.89,8,4,16,0.00
2013-10-29,82.3,78.4,75.5,75.3,73.1,71.1,92,84,74,29.99,29.89,10,5,18,0.00
2013-10-30,83.4,79.3,77.0,77.9,76.2,75.0,94,90,83,29.92,29.75,10,6,23,0.00
2013-10-31,87.3,78.8,73.3,79.2,75.2,69.9,97,89,62,29.79,29.69,7,3,15,1.02